Etusivu
METAR-TAF:

METAR-TAF

Lentoasemat :

Karachi, Pakistan

Leveyspiiri: 24-54N, Pituuspiiri: 067-08E, korkeus merenpinnasta: 21 m

Tämänhetkinen sää

Tämä raportti tehtiin 16 minuuttia sitten, kello 16.55 UTC
Tuuli 6 kn lännestä
Lämpötila 34°C
Kosteus 19%
Ilmanpaine 1005 hPa
Näkyvyys: 5000 m
usvaa

METAR: OPKC 201655Z 27006KT 5000 HZ NSC 34/07 Q1005 NOSIG

Aika: 22:11 (17:11 UTC)

Sääennuste

Tämä raportti tehtiin 7 tuntia ja 11 minuuttia sitten, kello 10.00 UTC
Ennuste voimassa 20. päivästä klo 12 UTC - 21. päivään klo 18 UTC
Tuuli 5 kn lännestä puuskistuen 15 kn:hen
Näkyvyys: 5000 m
usvaa
From UTC
Tuuli 13 kn pohjoisesta
Näkyvyys: 4000 m
usvaa
From UTC
Tuuli 5 kn lännestä puuskistuen 15 kn:hen
Näkyvyys: 6000 m

TAF: OPKC 201000Z 2012/2118 28005G15KT 5000 HZ NSC FM 022000 36013KT 4000 HZ NSC FM 210800 26005G15KT 6000 NSC

Säähavainnot ja -ennusteet yli 4000 lentoasemalta (METAR- ja TAF-raportit).

Käytössä olevat sääasemat on merkitty karttaan keltaisilla ja punaisilla pisteillä.

Aseta hiiri pisteen päälle nähdäksesi sääaseman nimen.

Klikkaa sitten nähdäksesi säähavainnot ja -ennusteet.

Kartan vaihtaminen: klikkaa mustalla rastilla varustettuja vihreitä pisteitä, niin voit zoomata sisään; viivalla varustettua vihreää pistettä, niin voit zoomata ulos tai vihreitä nuolia, niin pääset viereisille kartoille.


METAR-TAF: